• In Romania
  • List of Countries
  • For 7 days
  • Water Temperature
  • Satellite Maps
  • Weather Map
  • Weather Widgets
  • user-avatar
    Login

    Hourly Weather Stepanakert

    Today, 20 July, Friday

    Time Temperature Precipitation Wind Pressure Humidity
    00:00 +26°C° 0.1 mm 2 mps 686 mmHg 67%
    01:00 +26°C° 0 mm 2 mps 686 mmHg 68%
    02:00 +25°C° 0 mm 2 mps 686 mmHg 68%
    03:00 +25°C° 0 mm 2 mps 686 mmHg 69%
    04:00 +25°C° 0 mm 2 mps 687 mmHg 66%
    05:00 +26°C° 0 mm 1 mps 687 mmHg 64%
    06:00 +26°C° 0 mm 1 mps 687 mmHg 62%
    07:00 +28°C° 0 mm 2 mps 687 mmHg 54%
    08:00 +30°C° 0 mm 2 mps 688 mmHg 45%
    09:00 +33°C° 0 mm 3 mps 688 mmHg 37%
    10:00 +34°C° 0 mm 3 mps 688 mmHg 34%
    11:00 +35°C° 0 mm 3 mps 687 mmHg 31%
    12:00 +36°C° 0 mm 4 mps 687 mmHg 28%
    13:00 +37°C° 0 mm 4 mps 687 mmHg 28%
    14:00 +37°C° 0 mm 4 mps 687 mmHg 27%
    15:00 +38°C° 0 mm 4 mps 686 mmHg 27%
    16:00 +36°C° 0 mm 4 mps 686 mmHg 32%
    17:00 +35°C° 0 mm 4 mps 686 mmHg 37%
    18:00 +34°C° 0 mm 4 mps 686 mmHg 42%
    19:00 +32°C° 0 mm 4 mps 686 mmHg 50%
    20:00 +28°C° 0 mm 3 mps 686 mmHg 58%
    21:00 +26°C° 0 mm 2 mps 686 mmHg 65%
    22:00 +26°C° 0 mm 2 mps 686 mmHg 68%
    23:00 +25°C° 0 mm 2 mps 686 mmHg 70%

    Tomorrow, 21 July, Saturday

    Time Temperature Precipitation Wind Pressure Humidity
    00:00 +25°C° 0 mm 2 mps 686 mmHg 72%
    01:00 +25°C° 0 mm 1 mps 687 mmHg 72%
    02:00 +24°C° 0 mm 1 mps 687 mmHg 73%
    03:00 +24°C° 0 mm 1 mps 687 mmHg 74%
    04:00 +24°C° 0 mm 1 mps 687 mmHg 71%
    05:00 +25°C° 0 mm 1 mps 688 mmHg 69%
    06:00 +25°C° 0 mm 1 mps 688 mmHg 67%
    07:00 +27°C° 0 mm 2 mps 688 mmHg 61%
    08:00 +29°C° 0 mm 2 mps 688 mmHg 54%
    09:00 +30°C° 0 mm 3 mps 689 mmHg 48%
    10:00 +31°C° 0 mm 3 mps 689 mmHg 45%
    11:00 +33°C° 0 mm 3 mps 689 mmHg 42%
    12:00 +34°C° 0 mm 3 mps 689 mmHg 38%
    13:00 +35°C° 0 mm 4 mps 688 mmHg 37%
    14:00 +35°C° 0 mm 4 mps 688 mmHg 35%
    15:00 +36°C° 0 mm 4 mps 688 mmHg 34%
    16:00 +35°C° 0 mm 4 mps 688 mmHg 37%
    17:00 +34°C° 0 mm 4 mps 688 mmHg 39%
    18:00 +33°C° 0 mm 5 mps 687 mmHg 42%
    19:00 +30°C° 0 mm 4 mps 688 mmHg 48%
    20:00 +28°C° 0 mm 3 mps 688 mmHg 54%
    21:00 +26°C° 0 mm 2 mps 688 mmHg 60%
    22:00 +26°C° 0 mm 2 mps 689 mmHg 62%
    23:00 +25°C° 0 mm 2 mps 689 mmHg 64%

    Day after tomorrow, 22 July, Sunday

    Time Temperature Precipitation Wind Pressure Humidity
    00:00 +24°C° 0 mm 2 mps 689 mmHg 66%
    01:00 +24°C° 0 mm 2 mps 689 mmHg 67%
    02:00 +24°C° 0 mm 2 mps 689 mmHg 68%
    03:00 +23°C° 0 mm 2 mps 689 mmHg 69%
    04:00 +24°C° 0 mm 2 mps 689 mmHg 66%
    05:00 +24°C° 0 mm 1 mps 689 mmHg 63%
    06:00 +25°C° 0 mm 1 mps 689 mmHg 61%
    07:00 +26°C° 0 mm 2 mps 690 mmHg 54%
    08:00 +28°C° 0 mm 2 mps 690 mmHg 48%
    09:00 +30°C° 0 mm 3 mps 690 mmHg 41%
    10:00 +31°C° 0 mm 3 mps 690 mmHg 39%
    11:00 +33°C° 0 mm 4 mps 690 mmHg 37%
    12:00 +34°C° 0 mm 4 mps 690 mmHg 34%
    13:00 +34°C° 0 mm 4 mps 689 mmHg 34%
    14:00 +34°C° 0 mm 4 mps 689 mmHg 34%
    15:00 +35°C° 0 mm 5 mps 688 mmHg 33%
    16:00 +34°C° 0 mm 5 mps 688 mmHg 35%
    17:00 +33°C° 0 mm 5 mps 688 mmHg 37%
    18:00 +32°C° 0 mm 5 mps 688 mmHg 38%
    19:00 +29°C° 0 mm 4 mps 688 mmHg 44%
    20:00 +27°C° 0 mm 3 mps 688 mmHg 49%
    21:00 +25°C° 0 mm 2 mps 688 mmHg 54%
    22:00 +25°C° 0 mm 2 mps 688 mmHg 56%
    23:00 +24°C° 0 mm 2 mps 688 mmHg 58%

    23 July, Monday

    Time Temperature Precipitation Wind Pressure Humidity
    00:00 +24°C° 0 mm 2 mps 688 mmHg 59%
    01:00 +23°C° 0 mm 2 mps 688 mmHg 60%
    02:00 +23°C° 0 mm 2 mps 688 mmHg 60%
    03:00 +23°C° 0 mm 2 mps 688 mmHg 60%
    04:00 +23°C° 0 mm 1 mps 688 mmHg 59%
    05:00 +24°C° 0 mm 1 mps 688 mmHg 57%
    06:00 +24°C° 0 mm 1 mps 689 mmHg 55%
    07:00 +26°C° 0 mm 2 mps 689 mmHg 50%
    08:00 +28°C° 0 mm 2 mps 689 mmHg 44%
    09:00 +30°C° 0 mm 3 mps 689 mmHg 39%
    10:00 +31°C° 0 mm 3 mps 689 mmHg 36%
    11:00 +33°C° 0 mm 3 mps 688 mmHg 34%
    12:00 +34°C° 0 mm 4 mps 688 mmHg 32%
    13:00 +34°C° 0 mm 4 mps 688 mmHg 31%
    14:00 +35°C° 0 mm 4 mps 687 mmHg 30%
    15:00 +35°C° 0 mm 4 mps 687 mmHg 30%
    16:00 +35°C° 0 mm 4 mps 687 mmHg 32%
    17:00 +34°C° 0 mm 4 mps 687 mmHg 34%
    18:00 +33°C° 0 mm 3 mps 687 mmHg 36%
    19:00 +30°C° 0 mm 3 mps 687 mmHg 41%
    20:00 +28°C° 0 mm 2 mps 687 mmHg 45%
    21:00 +26°C° 0 mm 2 mps 687 mmHg 50%
    22:00 +26°C° 0 mm 2 mps 687 mmHg 52%
    23:00 +25°C° 0 mm 2 mps 688 mmHg 53%

    24 July, Tuesday

    Time Temperature Precipitation Wind Pressure Humidity
    00:00 +25°C° 0 mm 2 mps 688 mmHg 54%
    01:00 +24°C° 0 mm 2 mps 688 mmHg 55%
    02:00 +24°C° 0 mm 2 mps 688 mmHg 56%
    03:00 +24°C° 0 mm 2 mps 687 mmHg 57%
    04:00 +24°C° 0 mm 2 mps 688 mmHg 56%
    05:00 +25°C° 0 mm 2 mps 688 mmHg 55%
    06:00 +25°C° 0 mm 2 mps 688 mmHg 54%
    07:00 +27°C° 0 mm 2 mps 689 mmHg 48%
    08:00 +29°C° 0 mm 2 mps 689 mmHg 43%
    09:00 +30°C° 0 mm 3 mps 689 mmHg 37%
    10:00 +33°C° 0 mm 3 mps 689 mmHg 35%
    11:00 +34°C° 0 mm 3 mps 689 mmHg 33%
    12:00 +35°C° 0 mm 3 mps 689 mmHg 30%
    13:00 +35°C° 0 mm 3 mps 688 mmHg 30%
    14:00 +36°C° 0 mm 3 mps 688 mmHg 30%
    15:00 +36°C° 0 mm 3 mps 688 mmHg 29%
    16:00 +36°C° 0 mm 3 mps 688 mmHg 31%
    17:00 +35°C° 0 mm 3 mps 688 mmHg 32%
    18:00 +34°C° 0 mm 3 mps 688 mmHg 34%
    19:00 +31°C° 0 mm 2 mps 688 mmHg 39%
    20:00 +29°C° 0 mm 2 mps 689 mmHg 44%
    21:00 +27°C° 0 mm 2 mps 689 mmHg 49%
    22:00 +27°C° 0 mm 2 mps 689 mmHg 50%
    23:00 +26°C° 0 mm 2 mps 689 mmHg 50%

    25 July, Wednesday

    Time Temperature Precipitation Wind Pressure Humidity
    00:00 +26°C° 0 mm 2 mps 689 mmHg 51%
    01:00 +26°C° 0 mm 2 mps 689 mmHg 51%
    02:00 +25°C° 0 mm 2 mps 689 mmHg 51%
    03:00 +25°C° 0 mm 2 mps 689 mmHg 51%
    04:00 +25°C° 0 mm 2 mps 689 mmHg 51%
    05:00 +26°C° 0 mm 2 mps 689 mmHg 50%
    06:00 +26°C° 0 mm 2 mps 690 mmHg 50%
    07:00 +28°C° 0 mm 2 mps 690 mmHg 45%
    08:00 +30°C° 0 mm 2 mps 690 mmHg 40%
    09:00 +32°C° 0 mm 2 mps 690 mmHg 35%
    10:00 +34°C° 0 mm 3 mps 690 mmHg 33%
    11:00 +36°C° 0 mm 3 mps 689 mmHg 30%
    12:00 +37°C° 0 mm 3 mps 689 mmHg 28%
    13:00 +37°C° 0 mm 4 mps 689 mmHg 27%
    14:00 +38°C° 0 mm 4 mps 689 mmHg 27%
    15:00 +38°C° 0 mm 4 mps 688 mmHg 26%
    16:00 +37°C° 0 mm 4 mps 688 mmHg 29%
    17:00 +36°C° 0 mm 4 mps 688 mmHg 32%
    18:00 +36°C° 0 mm 4 mps 688 mmHg 34%
    19:00 +33°C° 0 mm 3 mps 688 mmHg 39%
    20:00 +30°C° 0 mm 3 mps 688 mmHg 44%
    21:00 +28°C° 0 mm 2 mps 688 mmHg 48%
    22:00 +27°C° 0 mm 2 mps 688 mmHg 50%
    23:00 +27°C° 0 mm 2 mps 688 mmHg 51%
    Show more